Regional Weather Roundup
Issued by NWS Green Bay, WI

Home | Current Version | Previous Version | Graphics & Text | Print | Product List | Glossary Off
Versions: 1 2 3 4 5 6 7 8 9 10 11 12 13 14 15 16 17 18 19 20 21 22 23 24 25 26 27 28 29 30 31 32 33 34 35 36 37 38 39 40 41 42 43 44 45 46 47 48 49 50

000
ASUS43 KGRB 211359
RWRGRB

NORTH-CENTRAL AND NORTHEAST WISCONSIN REGIONAL WEATHER ROUNDUP
NATIONAL WEATHER SERVICE GREEN BAY WI
800 AM CST SUN DEC 21 2014

WIZ005-009-010>012-018-019-211500-
NORTH CENTRAL WISCONSIN

CITY           SKY/WX    TMP DP  RH WIND       PRES   REMARKS
IRONWOOD       CLOUDY    30  27  86 S6G16     29.94F
MANITOWISH WTR NOT AVBL
ARBOR VITAE    NOT AVBL
EAGLE RIVER    NOT AVBL
LAND O LAKES   NOT AVBL
RHINELANDER    CLOUDY    27  26  96 SE8       30.02F FOG
PHILLIPS       NOT AVBL
ANTIGO         NOT AVBL
TOMAHAWK       NOT AVBL
MERRILL        NOT AVBL
$$

WIZ013-073-211500-
NORTHEAST WISCONSIN

CITY           SKY/WX    TMP DP  RH WIND       PRES   REMARKS
IRON MOUNTAIN  CLOUDY    27  24  89 S8        30.07F FOG
MARINETTE      CLOUDY    30  27  86 S6        30.13F
$$

WIZ017-030-035>037-045-211500-
CENTRAL WISCONSIN

CITY           SKY/WX    TMP DP  RH WIND       PRES   REMARKS
MEDFORD        NOT AVBL
WAUSAU         CLOUDY    29  27  92 SE8       30.03F FOG
MOSINEE        CLOUDY    28  28 100 SE8       30.05F FOG
MARSHFIELD     CLOUDY    30  28  92 S10       30.02F FOG
WISC RAPIDS    CLOUDY    30  27  88 SE9       30.06F FOG
STEVENS POINT  NOT AVBL
WAUPACA        NOT AVBL
SHAWANO        NOT AVBL
CLINTONVILLE   NOT AVBL
$$

WIZ038-039-048-051-211500-
FOX VALLEY

CITY           SKY/WX    TMP DP  RH WIND       PRES   REMARKS
NWS GREEN BAY  CLOUDY    31  28  89 SE6       30.13F FOG
APPLETON       CLOUDY    30  30 100 S9        30.12F FOG
OSHKOSH        CLOUDY    32  28  85 S9        30.12F FOG
FOND DU LAC    CLOUDY    32  28  85 S10       30.12F FOG
$$

WIZ022-050-052-211500-
EAST CENTRAL WISCONSIN

CITY           SKY/WX    TMP DP  RH WIND       PRES   REMARKS
STURGEON BAY   CLOUDY    30  25  80 S10       30.16S
MANITOWOC      NOT AVBL
SHEBOYGAN      CLOUDY    32  28  85 S7        30.15F FOG
$$

LMZ563-521-522-541>543-211500-
LAKESHORE

STATION/POSITION TIME  TEMP    WIND        PRES    VSBY  WAVE
                       AIR SEA DIR/SP/G                  HT/PER
                 (UTC) (F)     (DEG/KT/KT) (MB)    (MI)  (FT/S)
SHEBOYGAN LKSHOR 1300   34 34  190/ 11/ 13 1022.6F
KEWAUNEE LKSHORE 1300   32     200/  8/ 10 1020.4F
ALGOMA MARINA    1300          230/ 11/ 11   N/A
TWO RIVERS CG    1300   33                 1021.6
NORTHPORT PIER   1300   31      CALM  /  2 1021.3S
STURGEON BAY CG  1300   33     180/  5     1022.6      6   1
CHAMBERS ISLAND  1300   31     160/  3/  7 1021.3F
MENOMINEE LKSHOR 1300   31     160/  9/ 11 1021.2F
$$


USA.gov is the U.S. government's official web portal to all federal, state and local government web resources and services.